Theta_e
310 310 309 309 311 312 312 312 314 315 316 317 317 317 316 314 317 318 318 318 319 319 320 320 320 320 320 320 318 316 322 323 322 323 325 319 324 326 326 330 325 325 325 332 343
310 309 309 311 312 312 312 313 314 316 317 317 317 317 316 318 318 318 318 319 319 320 320 320 320 320 320 319 317 318 323 321 319 320 322 320 321 320 324 324 324 325 326 334 344
309 309 311 312 313 312 313 314 315 316 317 317 316 318 317 318 318 317 319 319 319 319 320 320 320 320 318 317 316 316 322 319 319 319 318 319 319 318 323 325 324 327 326 330 343
309 310 312 313 313 313 314 315 316 316 317 315 319 317 317 315 318 318 319 319 319 320 320 320 320 320 320 320 316 321 318 319 319 319 318 320 318 319 319 319 321 324 326 327 336
310 312 313 313 314 313 314 315 316 316 316 315 320 320 315 317 317 319 319 320 319 320 320 320 321 320 322 319 319 321 318 317 317 317 317 318 318 318 317 318 321 324 325 327 331
311 313 313 314 314 313 313 314 315 316 315 317 320 320 316 317 318 319 319 320 320 320 320 320 320 320 320 320 321 318 318 318 317 317 317 319 318 319 318 317 320 327 332 337 338
311 313 314 314 314 313 312 312 314 315 315 317 319 320 318 319 319 319 320 320 321 321 321 321 321 320 320 320 318 318 320 321 319 317 318 318 319 320 319 318 318 317 320 326 333
311 312 313 313 313 313 313 312 312 315 314 317 317 320 321 319 319 319 320 320 321 321 321 321 320 320 320 318 318 320 319 322 320 319 318 318 320 320 319 321 322 322 321 319 317
312 312 312 313 312 312 312 312 312 313 313 316 315 318 321 320 320 320 320 321 321 321 321 321 321 319 318 322 322 320 322 321 320 318 319 321 320 319 319 321 323 323 324 323 319
310 312 312 312 311 315 320 320 314 313 314 315 313 321 321 320 320 320 320 321 321 321 321 322 321 323 321 322 322 321 321 320 321 320 319 321 321 320 320 321 322 323 324 325 325
310 310 311 311 315 319 321 321 320 322 320 317 320 321 321 321 320 320 321 321 321 320 322 319 323 323 321 319 319 319 321 321 319 318 319 321 321 320 320 320 321 322 324 325 325
309 311 311 312 320 321 320 321 320 320 321 320 320 321 322 321 320 320 321 321 321 321 319 322 322 319 318 318 319 320 320 320 319 318 318 320 320 320 319 319 319 321 322 323 325
310 311 316 319 321 320 319 319 320 320 320 320 320 321 322 320 319 321 321 320 321 321 321 322 319 318 320 319 320 319 320 320 320 318 317 320 320 319 319 319 319 319 320 321 322
311 315 320 321 321 320 320 320 319 321 325 325 324 323 321 319 320 321 321 321 321 322 320 320 317 319 320 319 318 320 317 318 319 319 321 316 321 319 319 320 320 320 319 318 319
312 316 321 322 320 320 320 320 320 322 330 325 320 321 319 319 320 321 321 322 322 321 322 319 318 319 320 318 317 319 316 317 317 319 318 318 319 319 318 320 320 319 319 319 317
314 319 322 321 321 320 318 318 320 327 327 322 319 319 319 318 321 320 321 321 319 321 320 319 317 318 318 317 315 314 316 315 314 317 318 318 319 319 320 320 319 319 319 319 318
316 315 321 321 319 319 321 320 327 329 323 323 322 320 321 322 320 321 321 322 324 325 323 320 319 317 316 316 317 318 317 316 316 316 314 317 318 318 318 318 318 319 316 315 316
319 315 314 317 320 320 322 325 329 324 323 322 321 321 323 321 321 321 321 322 320 321 322 323 323 318 316 316 317 316 318 316 314 315 315 317 317 320 316 314 315 316 315 314 314
321 317 320 322 323 320 324 329 326 323 321 322 321 323 323 321 321 322 322 321 319 319 324 322 321 316 315 315 315 317 318 314 319 316 318 317 318 317 316 316 315 315 315 314 312
322 322 325 322 319 320 328 325 321 320 320 320 324 321 323 322 322 322 322 320 319 317 317 319 321 316 316 314 316 317 314 318 318 320 314 315 317 317 318 317 315 315 314 313 312
324 326 320 319 319 324 327 323 321 318 319 321 321 321 321 321 320 321 322 320 318 317 316 317 319 315 314 316 316 317 316 316 316 318 318 315 314 317 317 316 316 315 313 313 312
319 324 319 319 323 318 326 323 318 318 318 319 319 319 320 318 320 320 321 319 316 317 318 316 317 317 315 313 313 316 317 316 319 316 317 318 316 315 316 315 314 314 313 310 310
320 321 320 320 324 322 319 318 317 318 317 318 318 318 317 319 320 319 318 316 317 317 319 317 318 321 315 317 316 318 317 317 316 315 319 319 317 315 315 315 313 313 310 310 309
319 323 319 318 316 319 320 320 318 316 316 315 317 317 318 318 316 318 318 316 317 318 312 314 316 316 314 315 314 317 318 317 318 322 319 318 318 316 316 315 313 311 310 309 308
316 316 314 320 319 318 317 318 318 318 315 315 316 318 319 319 317 318 317 316 316 316 315 317 316 315 315 314 315 317 317 318 319 319 319 318 317 317 315 314 312 310 310 308 307
314 314 313 314 315 317 316 319 319 316 317 316 318 315 315 318 318 318 317 316 316 315 316 314 316 317 317 316 317 318 318 318 318 317 317 317 316 313 312 312 310 310 309 307 307
310 311 314 313 315 316 319 318 317 315 314 314 315 315 315 315 314 314 314 313 315 317 316 316 316 318 320 318 318 320 317 317 317 316 316 316 314 313 313 310 310 310 308 307 307
Wind_Speed
2 2 4 7 8 7 7 8 9 10 9 8 8 9 7 9 16 16 16 13 10 9 6 6 5 6 8 6 5 3 3 6 4 9 5 1 5 5 2 6 3 4 2 3 13
3 4 8 9 8 7 8 9 9 9 8 8 9 10 10 18 18 19 17 16 16 13 14 7 7 7 5 4 4 4 5 3 2 1 2 1 3 3 4 5 3 6 6 9 17
5 9 11 10 8 8 9 9 9 8 7 7 10 9 10 11 14 14 15 14 16 15 13 13 11 11 7 5 6 2 5 3 2 3 2 2 3 2 8 5 6 9 10 11 19
9 11 11 10 9 9 9 9 8 7 6 7 10 7 5 3 4 9 13 13 13 16 11 15 11 6 5 5 3 7 3 2 2 1 2 3 3 5 6 11 10 8 9 11 16
11 12 11 10 9 9 8 7 7 6 5 7 10 6 3 11 7 9 11 10 10 14 13 8 14 6 6 5 5 7 4 6 2 3 3 5 11 6 19 17 5 11 10 12 15
11 11 10 9 8 7 6 6 5 4 3 6 9 7 9 7 6 8 8 11 10 11 12 12 8 10 7 4 4 6 12 9 6 4 6 9 15 5 19 15 4 5 8 10 15
10 10 9 7 6 5 4 3 4 3 1 4 8 7 8 5 5 6 9 11 9 7 7 7 7 4 6 5 6 9 11 13 16 8 5 7 9 12 19 12 9 4 7 14 20
7 8 7 5 4 4 2 2 4 4 1 2 7 6 4 5 4 6 9 12 10 9 7 8 9 9 4 5 5 4 2 3 9 9 6 5 5 13 18 16 16 13 9 11 18
6 6 5 5 4 3 2 2 3 3 2 1 4 5 3 6 6 7 9 12 9 13 16 14 14 7 4 5 4 4 5 6 2 10 3 6 4 13 13 13 16 17 18 16 11
5 5 4 4 4 4 2 2 2 3 1 3 2 4 5 5 6 6 8 9 10 9 9 11 7 8 6 2 3 3 4 4 3 6 10 11 7 9 14 14 16 16 17 20 20
4 5 5 6 6 6 4 5 1 0 2 2 2 2 3 4 4 5 8 10 12 13 4 8 9 8 7 3 3 5 5 4 2 3 3 8 8 9 12 18 19 18 17 18 18
4 5 6 7 9 9 6 6 6 2 2 1 3 2 1 1 3 4 7 6 11 8 1 4 10 7 4 7 7 4 4 3 1 3 1 4 8 8 13 14 13 14 15 15 15
5 6 8 8 9 9 10 9 6 4 1 1 1 2 2 2 2 4 5 4 8 12 13 11 4 5 10 10 7 5 3 1 2 2 5 8 5 4 5 8 10 14 14 15 15
4 8 7 8 6 6 7 6 7 4 2 3 1 2 6 4 3 3 4 2 4 5 5 7 4 9 11 7 2 2 2 3 5 3 6 2 4 4 4 4 8 10 11 13 14
2 6 5 4 4 4 5 5 5 3 3 0 2 4 5 2 5 2 4 4 4 3 2 4 7 7 10 3 2 2 3 2 3 6 2 2 4 6 6 3 3 5 9 11 12
2 5 4 3 2 6 8 5 1 1 3 2 2 1 4 3 2 2 2 6 4 4 8 5 2 4 3 2 4 3 1 2 2 1 4 4 3 6 5 3 2 2 6 9 9
5 5 4 1 2 7 5 4 2 2 2 3 2 2 5 4 3 4 4 4 1 1 2 3 3 1 4 1 3 7 4 2 2 2 3 3 6 3 3 2 1 1 3 6 7
5 3 5 3 4 7 1 2 3 1 1 1 2 6 4 4 3 3 2 3 6 2 2 0 3 6 6 4 2 4 3 1 4 3 7 5 5 2 4 4 4 2 2 4 8
4 6 5 1 5 6 1 2 2 2 1 1 3 2 2 1 2 2 2 2 3 3 1 1 3 2 8 4 3 2 2 2 0 1 3 1 1 5 6 3 4 4 5 10 14
4 5 2 2 4 4 3 2 1 1 0 1 2 2 1 3 1 1 1 2 3 4 2 2 1 1 2 1 10 4 5 0 2 3 6 3 4 7 8 4 2 5 8 11 17
2 4 1 2 3 2 2 2 2 4 2 3 2 2 2 1 2 1 2 2 2 4 6 2 0 3 2 2 2 3 2 3 1 2 3 6 3 1 4 3 5 12 12 18 23
1 2 1 0 2 2 2 2 1 2 6 4 4 3 1 1 2 1 2 2 3 3 2 2 2 0 1 3 3 1 2 2 1 1 4 5 8 1 5 3 7 10 16 22 24
5 2 3 2 2 1 0 2 2 2 3 2 3 2 1 2 1 1 2 2 3 2 4 5 1 0 2 3 3 4 3 3 2 1 7 7 5 3 3 6 11 14 20 24 27
4 1 4 5 5 2 2 2 3 4 3 4 4 3 3 2 2 3 3 2 2 3 4 5 3 4 4 4 1 4 6 8 5 4 11 13 21 16 12 15 16 21 26 29 31
5 3 2 2 3 2 1 1 4 4 3 2 2 2 4 3 2 3 3 2 2 4 3 1 3 4 7 8 6 8 10 9 11 14 9 16 15 16 15 13 18 21 26 32 36
3 2 2 1 3 1 1 3 5 3 4 2 4 5 3 3 3 5 5 3 3 3 2 1 2 1 4 4 6 10 11 11 13 11 10 11 16 9 16 17 24 25 31 34 36
6 3 1 1 1 1 1 1 4 6 2 1 7 5 3 2 3 2 4 3 3 4 4 3 4 2 3 3 7 11 6 5 3 4 6 9 16 17 14 24 24 27 31 34 36
Wind_Direction
49 86 113 123 120 111 99 96 100 98 92 77 55 29 28 77 90 75 56 48 47 50 71 101 80 98 93 67 56 87 94 117 133 174 157 132 133 158 190 148 203 225 296 195 185
96 110 122 121 116 106 101 100 100 100 90 69 38 25 93 100 82 62 48 51 51 50 62 99 91 100 80 50 29 48 99 115 147 152 181 110 76 133 166 157 251 244 220 184 188
110 122 125 120 112 106 104 103 105 101 88 54 33 46 117 114 69 39 41 44 52 47 52 59 96 86 78 60 17 40 90 146 114 127 124 74 90 106 143 199 210 199 195 191 196
118 126 124 116 109 106 106 107 106 102 81 47 42 75 133 34 79 37 41 43 49 47 59 55 90 71 73 78 26 103 84 57 110 147 185 141 102 91 30 328 293 217 198 192 195
123 127 122 114 108 105 105 109 110 106 74 45 41 55 92 100 79 53 45 42 51 50 55 64 64 74 83 94 91 81 51 44 22 21 75 73 49 64 29 355 267 227 220 209 209
129 129 122 114 109 105 104 112 122 119 70 44 34 63 97 88 77 53 57 51 37 44 50 63 69 107 95 87 64 81 84 56 18 327 51 81 40 42 354 357 323 268 256 244 231
134 135 127 118 112 110 104 123 151 158 50 31 29 56 78 87 87 61 50 34 24 37 34 59 57 98 126 117 97 136 94 59 26 351 76 134 48 10 346 15 41 344 275 267 258
133 145 143 136 128 125 114 137 174 193 267 6 12 34 78 73 95 65 44 47 40 55 80 90 79 85 65 112 58 108 80 101 17 3 43 196 105 28 2 16 31 19 347 305 272
136 144 147 140 129 125 123 151 185 211 215 294 5 23 58 75 71 43 32 32 52 65 88 104 70 66 73 124 116 39 110 105 102 24 334 26 86 22 28 38 42 28 17 8 336
142 148 143 127 111 93 105 126 144 139 152 268 330 97 61 32 37 51 31 14 51 121 76 55 61 59 43 78 99 97 114 89 98 18 76 79 74 32 38 61 54 39 33 28 23
121 145 136 123 100 74 116 115 70 77 337 98 91 61 66 37 50 24 29 40 60 65 77 33 62 40 0 27 95 111 108 115 154 56 99 94 89 45 35 49 49 48 36 31 30
84 126 130 127 93 80 96 85 62 37 332 111 217 260 324 59 42 51 33 63 48 52 114 85 41 355 79 94 78 96 109 58 249 28 153 159 96 62 47 47 46 48 45 38 34
81 116 121 119 104 93 83 62 32 355 58 10 206 193 140 135 63 46 31 73 79 69 66 86 49 67 77 65 80 61 89 160 280 4 86 149 157 125 66 58 55 53 56 49 41
79 124 120 125 103 103 60 30 14 8 82 1 111 169 166 145 70 66 61 66 64 111 99 73 28 63 67 64 339 235 343 290 279 250 282 232 289 169 124 82 55 42 43 43 41
65 145 127 133 105 62 350 334 341 327 111 70 86 145 160 141 140 66 51 59 86 87 214 94 60 58 57 46 315 53 342 324 302 244 273 163 248 138 192 146 73 34 35 32 31
347 183 159 128 31 348 325 300 260 215 117 94 33 98 123 37 64 119 96 78 104 81 64 106 84 34 357 95 44 310 210 80 87 189 239 129 324 177 189 179 156 36 25 17 13
7 196 195 197 355 346 346 149 133 88 304 20 40 23 88 25 53 30 33 39 3 171 141 110 57 6 12 42 47 21 352 331 207 226 308 141 281 4 148 87 30 38 31 24 20
32 130 176 227 345 352 32 88 86 160 55 65 63 78 83 9 49 42 82 114 50 64 111 221 196 6 356 28 348 39 4 309 293 285 308 280 256 117 111 84 73 85 30 15 356
70 120 122 32 339 1 97 77 138 179 189 99 95 83 96 65 109 94 61 88 32 8 134 174 132 78 61 41 345 87 74 15 242 237 264 241 194 199 176 91 51 14 333 337 338
114 139 104 20 347 353 86 124 106 265 52 80 103 355 111 14 155 93 129 45 107 44 9 128 189 58 87 267 55 67 122 207 35 305 295 239 268 287 202 234 266 299 316 324 325
140 152 74 356 351 64 110 153 144 39 126 44 111 102 90 66 51 84 71 65 44 56 74 102 84 132 219 48 119 144 125 77 358 256 278 304 300 147 267 195 337 330 321 322 324
49 122 2 264 46 41 127 156 116 82 68 77 87 95 122 91 72 108 131 45 12 125 82 63 121 102 34 316 290 249 149 121 167 231 246 282 289 31 170 159 328 310 320 321 320
2 342 15 164 147 113 193 110 92 107 49 95 106 68 63 111 132 129 110 65 44 110 159 172 56 9 169 158 178 239 193 147 121 203 245 275 272 178 198 275 315 319 324 320 319
3 343 26 69 82 110 139 134 115 64 85 82 115 126 119 119 38 152 142 50 35 95 115 133 146 219 249 295 128 224 223 211 239 251 285 266 289 299 310 326 325 327 325 323 323
26 62 46 6 50 42 16 148 154 163 97 109 101 159 157 156 154 181 170 151 84 144 80 145 237 205 253 253 230 257 260 263 250 273 270 294 296 305 321 317 318 321 320 324 322
50 44 21 51 327 294 341 206 202 152 162 176 156 149 148 172 210 197 180 209 198 139 122 40 204 218 269 275 243 260 267 273 278 279 264 283 295 342 314 310 321 323 321 322 321
34 22 28 8 42 216 225 207 215 156 82 164 156 136 188 205 164 162 181 125 148 174 153 173 162 189 261 351 316 276 273 210 265 244 283 288 313 318 311 316 322 316 319 319 319